Weather History for Fort Meade, MD

Change the Weather History Date:

Friday, April 25, 2014

  Actual Average (KBWI) Record (KBWI)
Temperature  
Mean Temperature 50 °F 57 °F  
Max Temperature 66 °F 68 °F 94 °F (1960)
Min Temperature 33 °F 46 °F 30 °F (1956)
Degree Days  
Heating Degree Days 16 9  
Month to date heating degree days 313  
Since 1 July heating degree days 4574  
Cooling Degree Days 0 1  
Month to date cooling degree days 7  
Year to date cooling degree days 8  
Moisture  
Dew Point 36 °F    
Average Humidity 66    
Maximum Humidity 94    
Minimum Humidity 27    
Precipitation  
Precipitation 0.00 in 0.10 in 2.24 in (1889)
Month to date precipitation 2.66  
Year to date precipitation 12.51  
Snow  
Snow 0.00 in 0.00 in T in (1919)
Month to date snowfall 0.0  
Since 1 July snowfall 20.1  
Snow Depth -    
Sea Level Pressure  
Sea Level Pressure 29.92 in    
Wind  
Wind Speed 5 mph (ESE)    
Max Wind Speed 21 mph    
Max Gust Speed 30 mph    
Visibility 9 miles    
Events      
T = Trace of Precipitation, MM = Missing Value Source: NWS Daily Summary

Daily Weather History Graph

Daily Weather History Graph

Search for Another Location

Airport:

Trip Planner

Search our weather history database for the weather conditions in past years. The results will help you decide how hot, cold, wet, or windy it might be!

Date:

Astronomy

Apr. 25, 2014 Rise Set
Actual Time 6:16 AM EDT 7:54 PM EDT
Civil Twilight 5:48 AM EDT 8:22 PM EDT
Nautical Twilight 5:13 AM EDT 8:56 PM EDT
Astronomical Twilight 4:37 AM EDT 9:33 PM EDT
Moon 4:01 AM EDT (4/25) 4:15 PM EDT (4/25)
Length of Visible Light 14h 34m
Length of Day
13h 37m
Waning Crescent, 15% of the Moon is Illuminated
Apr 25
Waning Crescent
Apr 29
New
May 6
First Quarter
May 14
Full
May 21
Last Quarter

Hourly Weather History & Observations

Time (EDT) Temp. Windchill Dew Point Humidity Pressure Visibility Wind Dir Wind Speed Gust Speed Precip Events Conditions
12:15 AM 39.2 °F - 32.0 °F 75% 30.06 in 10.0 mi Calm Calm - N/A   Clear
12:36 AM 39.2 °F - 32.0 °F 75% 30.06 in 10.0 mi Calm Calm - N/A   Clear
12:57 AM 37.4 °F - 32.0 °F 81% 30.05 in 10.0 mi Calm Calm - N/A   Clear
1:15 AM 37.4 °F - 32.0 °F 81% 30.05 in 10.0 mi Calm Calm - N/A   Clear
1:36 AM 37.4 °F - 32.0 °F 81% 30.04 in 10.0 mi Calm Calm - N/A   Clear
1:57 AM 35.6 °F - 32.0 °F 87% 30.03 in 10.0 mi Calm Calm - N/A   Clear
2:18 AM 35.6 °F - 32.0 °F 87% 30.02 in 10.0 mi Calm Calm - N/A   Clear
2:36 AM 33.8 °F - 32.0 °F 93% 30.02 in 10.0 mi Calm Calm - N/A   Clear
2:57 AM 35.6 °F - 32.0 °F 87% 30.03 in 10.0 mi Calm Calm - N/A   Clear
3:18 AM 35.6 °F - 32.0 °F 87% 30.03 in 10.0 mi Calm Calm - N/A   Clear
3:36 AM 35.6 °F - 32.0 °F 87% 30.04 in 10.0 mi Calm Calm - N/A   Clear
3:57 AM 33.8 °F - 32.0 °F 93% 30.04 in 10.0 mi Calm Calm - N/A   Clear
4:18 AM 35.6 °F - 32.0 °F 87% 30.04 in 10.0 mi Calm Calm - N/A   Clear
4:36 AM 35.6 °F - 32.0 °F 87% 30.05 in 10.0 mi Calm Calm - N/A   Clear
4:57 AM 35.6 °F - 32.0 °F 87% 30.04 in 10.0 mi Calm Calm - N/A   Clear
5:18 AM 37.4 °F - 32.0 °F 81% 30.04 in 10.0 mi Calm Calm - N/A   Clear
5:36 AM 37.4 °F - 33.8 °F 87% 30.04 in 10.0 mi Calm Calm - N/A   Clear
5:57 AM 37.4 °F - 33.8 °F 87% 30.04 in 10.0 mi Calm Calm - N/A   Clear
6:18 AM 37.4 °F - 33.8 °F 87% 30.05 in 10.0 mi Calm Calm - N/A   Clear
6:36 AM 37.4 °F - 33.8 °F 87% 30.05 in 10.0 mi Calm Calm - N/A   Scattered Clouds
6:57 AM 41.0 °F - 35.6 °F 81% 30.05 in 10.0 mi Calm Calm - N/A   Clear
7:18 AM 44.6 °F 41.4 °F 39.2 °F 81% 30.04 in 10.0 mi East 5.8 mph - N/A   Clear
7:36 AM 44.6 °F 43.1 °F 37.4 °F 76% 30.05 in 10.0 mi ENE 3.5 mph - N/A   Scattered Clouds
7:57 AM 48.2 °F - 35.6 °F 62% 30.05 in 10.0 mi East 6.9 mph - N/A   Clear
8:18 AM 51.8 °F - 32.0 °F 47% 30.03 in 10.0 mi East 10.4 mph - N/A   Clear
8:36 AM 51.8 °F - 30.2 °F 44% 30.03 in 10.0 mi ESE 9.2 mph - N/A   Clear
8:57 AM 53.6 °F - 26.6 °F 35% 30.03 in 10.0 mi ESE 8.1 mph - N/A   Clear
9:18 AM 55.4 °F - 26.6 °F 33% 30.02 in 10.0 mi SE 6.9 mph - N/A   Clear
9:36 AM 55.4 °F - 26.6 °F 33% 30.01 in 10.0 mi ESE 12.7 mph - N/A   Clear
9:57 AM 57.2 °F - 30.2 °F 36% 30.00 in 10.0 mi SE 11.5 mph 16.1 mph N/A   Clear
10:18 AM 57.2 °F - 30.2 °F 36% 30.00 in 10.0 mi SE 10.4 mph 16.1 mph N/A   Clear
10:39 AM 59.0 °F - 30.2 °F 34% 29.99 in 10.0 mi ESE 9.2 mph - N/A   Clear
10:57 AM 60.8 °F - 30.2 °F 31% 29.98 in 10.0 mi ESE 13.8 mph - N/A   Clear
11:18 AM 60.8 °F - 30.2 °F 31% 29.98 in 10.0 mi ESE 12.7 mph 18.4 mph N/A   Clear
11:39 AM 62.6 °F - 32.0 °F 32% 29.97 in 10.0 mi SSE 13.8 mph 19.6 mph N/A   Clear
11:57 AM 62.6 °F - 30.2 °F 30% 29.96 in 10.0 mi SSE 11.5 mph 17.3 mph N/A   Clear
12:18 PM 62.6 °F - 30.2 °F 30% 29.95 in 10.0 mi SSE 9.2 mph 18.4 mph N/A   Clear
12:39 PM 62.6 °F - 30.2 °F 30% 29.93 in 10.0 mi SE 12.7 mph 21.9 mph N/A   Scattered Clouds
12:57 PM 62.6 °F - 28.4 °F 27% 29.92 in 10.0 mi ESE 16.1 mph 23.0 mph N/A   Scattered Clouds
1:18 PM 62.6 °F - 30.2 °F 30% 29.91 in 10.0 mi SSE 16.1 mph 20.7 mph N/A   Clear
1:39 PM 62.6 °F - 32.0 °F 32% 29.88 in 10.0 mi ESE 16.1 mph 21.9 mph N/A   Clear
1:57 PM 64.4 °F - 32.0 °F 30% 29.88 in 10.0 mi SE 17.3 mph 23.0 mph N/A   Scattered Clouds
2:18 PM 62.6 °F - 32.0 °F 32% 29.86 in 10.0 mi SE 11.5 mph 23.0 mph N/A   Scattered Clouds
2:39 PM 64.4 °F - 32.0 °F 30% 29.85 in 10.0 mi SSE 18.4 mph 25.3 mph N/A   Clear
2:57 PM 66.2 °F - 32.0 °F 28% 29.84 in 10.0 mi SE 15.0 mph 26.5 mph N/A   Scattered Clouds
3:18 PM 62.6 °F - 32.0 °F 32% 29.82 in 10.0 mi SE 20.7 mph 26.5 mph N/A   Mostly Cloudy
3:39 PM 62.6 °F - 32.0 °F 32% 29.81 in 10.0 mi SSE 17.3 mph 26.5 mph N/A   Overcast
3:57 PM 62.6 °F - 32.0 °F 32% 29.80 in 10.0 mi SE 13.8 mph 29.9 mph N/A   Overcast
4:18 PM 62.6 °F - 32.0 °F 32% 29.78 in 10.0 mi SSE 18.4 mph 26.5 mph N/A   Overcast
4:39 PM 60.8 °F - 32.0 °F 34% 29.78 in 10.0 mi SSE 19.6 mph 28.8 mph N/A   Overcast
4:57 PM 60.8 °F - 32.0 °F 34% 29.77 in 10.0 mi SSE 18.4 mph 26.5 mph N/A   Overcast
5:18 PM 59.0 °F - 35.6 °F 42% 29.79 in 7.0 mi South 11.5 mph 24.2 mph N/A   Overcast
5:39 PM 50.0 °F - 46.4 °F 87% 29.87 in 0.5 mi WSW 9.2 mph 13.8 mph N/A   Overcast
5:57 PM 50.0 °F - 46.4 °F 87% 29.86 in 1.5 mi Calm Calm - N/A   Overcast
6:18 PM 50.0 °F - 46.4 °F 87% 29.84 in 1.0 mi ENE 3.5 mph - N/A   Overcast
6:39 PM 50.0 °F - 46.4 °F 87% 29.80 in 2.5 mi East 8.1 mph - N/A   Unknown
7:00 PM 50.0 °F - 46.4 °F 87% 29.78 in 5.0 mi East 4.6 mph - N/A   Mostly Cloudy
7:18 PM 50.0 °F - 48.2 °F 94% 29.78 in 7.0 mi East 5.8 mph - N/A   Mostly Cloudy
7:39 PM 50.0 °F - 48.2 °F 94% 29.77 in 7.0 mi East 3.5 mph - N/A   Overcast
8:00 PM 50.0 °F - 48.2 °F 94% 29.76 in 10.0 mi ENE 4.6 mph - N/A   Overcast
8:18 PM 50.0 °F - 48.2 °F 94% 29.76 in 10.0 mi ENE 5.8 mph - N/A   Overcast
8:39 PM 50.0 °F - 48.2 °F 94% 29.76 in 10.0 mi East 6.9 mph - N/A   Overcast
9:00 PM 50.0 °F - 48.2 °F 94% 29.76 in 7.0 mi ENE 5.8 mph - N/A   Overcast
9:18 PM 50.0 °F - 48.2 °F 94% 29.76 in 7.0 mi ENE 5.8 mph - N/A   Overcast
9:39 PM 51.8 °F - 48.2 °F 88% 29.77 in 7.0 mi ENE 4.6 mph - N/A   Overcast
10:00 PM 50.0 °F - 48.2 °F 94% 29.76 in 7.0 mi NE 3.5 mph - N/A   Overcast
10:18 PM 51.8 °F - 48.2 °F 88% 29.76 in 10.0 mi NNE 3.5 mph - N/A   Overcast
10:39 PM 51.8 °F - 48.2 °F 88% 29.76 in 7.0 mi North 4.6 mph - N/A   Overcast
11:00 PM 50.0 °F - 48.2 °F 94% 29.75 in 5.0 mi Calm Calm - N/A   Overcast
11:18 PM 50.0 °F - 48.2 °F 94% 29.75 in 4.0 mi NNE 3.5 mph - N/A   Overcast
11:39 PM 50.0 °F - 46.4 °F 87% 29.75 in 4.0 mi Calm Calm - N/A   Overcast